Table Rock Lake Weather Center

Moon Phase Calendar



Table Rock Lake Water Level
Online Cameras

 


      

Current Conditions in Kimberling City
7/7/2022 12:36:08 PM

96°F
Feels Like 108
Clear
Humidity
51%
Pressure
29.97"
Wind
4.6 mph (N)
Dew Point
75°F
UV Index
10/10 (Very High)
Visibility
6 mi

Hourly Forecast

Date & Time Thu, Jul 7
12:00 PM
Thu, Jul 7
1:00 PM
Thu, Jul 7
2:00 PM
Thu, Jul 7
3:00 PM
Thu, Jul 7
4:00 PM
Thu, Jul 7
5:00 PM
Thu, Jul 7
6:00 PM
Thu, Jul 7
7:00 PM
Thu, Jul 7
8:00 PM
Thu, Jul 7
9:00 PM
Thu, Jul 7
10:00 PM
Thu, Jul 7
11:00 PM
Fri, Jul 8
12:00 AM
Fri, Jul 8
1:00 AM
Fri, Jul 8
2:00 AM
Fri, Jul 8
3:00 AM
Fri, Jul 8
4:00 AM
Fri, Jul 8
5:00 AM
Fri, Jul 8
6:00 AM
Fri, Jul 8
7:00 AM
Fri, Jul 8
8:00 AM
Fri, Jul 8
9:00 AM
Fri, Jul 8
10:00 AM
Fri, Jul 8
11:00 AM
Fri, Jul 8
12:00 PM
Fri, Jul 8
1:00 PM
Fri, Jul 8
2:00 PM
Fri, Jul 8
3:00 PM
Fri, Jul 8
4:00 PM
Fri, Jul 8
5:00 PM
Fri, Jul 8
6:00 PM
Fri, Jul 8
7:00 PM
Fri, Jul 8
8:00 PM
Fri, Jul 8
9:00 PM
Fri, Jul 8
10:00 PM
Fri, Jul 8
11:00 PM
Sat, Jul 9
12:00 AM
Sat, Jul 9
1:00 AM
Sat, Jul 9
2:00 AM
Sat, Jul 9
3:00 AM
Sat, Jul 9
4:00 AM
Sat, Jul 9
5:00 AM
Sat, Jul 9
6:00 AM
Sat, Jul 9
7:00 AM
Sat, Jul 9
8:00 AM
Sat, Jul 9
9:00 AM
Sat, Jul 9
10:00 AM
Sat, Jul 9
11:00 AM
Condition
Clear

Clear

Clear

Clear

Clear

Clouds

Clouds

Clouds

Clouds

Clouds

Clouds

Clouds

Clouds

Clouds

Clouds

Clouds

Clouds

Clouds

Clouds

Clouds

Clear

Clear

Clouds

Clouds

Clouds

Clouds

Clouds

Clouds

Clouds

Clouds

Clouds

Clouds

Clear

Clear

Clear

Clear

Rain

Rain

Rain

Rain

Clouds

Clouds

Clouds

Clouds

Clouds

Clouds

Clouds

Clouds
Temperature 96°F96°F97°F98°F99°F100°F100°F95°F86°F83°F82°F81°F80°F78°F78°F77°F78°F79°F80°F78°F83°F88°F93°F97°F98°F96°F100°F102°F102°F100°F98°F94°F87°F83°F81°F80°F78°F75°F75°F74°F74°F73°F73°F74°F76°F79°F82°F86°F
Feels Like 106°F108°F106°F105°F105°F103°F101°F98°F89°F85°F83°F82°F80°F79°F78°F77°F78°F79°F80°F79°F86°F91°F96°F99°F100°F99°F103°F105°F105°F104°F103°F99°F93°F88°F86°F80°F79°F77°F76°F75°F75°F75°F74°F76°F78°F80°F88°F93°F
Cloudiness 9%0%6%8%10%11%11%15%81%48%62%56%55%48%11%16%30%45%54%50%6%9%11%15%17%22%88%47%32%35%32%27%5%3%3%3%2%2%5%4%17%24%30%34%81%77%76%73%
Visibility 6 mi6 mi6 mi6 mi6 mi6 mi6 mi6 mi6 mi6 mi6 mi6 mi6 mi6 mi6 mi6 mi6 mi6 mi6 mi6 mi6 mi6 mi6 mi6 mi6 mi6 mi6 mi6 mi6 mi6 mi6 mi6 mi6 mi6 mi6 mi6 mi6 mi6 mi6 mi6 mi6 mi6 mi6 mi6 mi6 mi6 mi6 mi6 mi
Precipitation 0%0%0%0%0%0%0%0%0%0%0%0%0%3%11%6%3%3%3%1%0%0%0%0%0%0%0%0%0%0%0%1%1%4%7%7%39%47%63%59%53%49%48%45%0%0%0%0%
Humidity 48%51%46%41%36%30%28%39%53%54%55%55%55%57%60%62%62%61%62%71%63%50%41%34%32%38%32%28%29%32%36%45%62%70%75%79%86%95%96%97%97%98%98%97%95%88%75%64%
Dew Point 73°F75°F72°F70°F68°F63°F61°F66°F67°F65°F64°F63°F62°F62°F62°F63°F64°F65°F65°F67°F69°F67°F66°F64°F63°F65°F64°F63°F63°F65°F66°F69°F72°F72°F72°F72°F73°F73°F73°F73°F72°F72°F72°F73°F74°F75°F73°F72°F
Pressure 29.97"29.97"29.94"29.94"29.91"29.88"29.83"29.83"29.85"29.85"29.88"29.85"29.88"29.88"29.88"29.91"29.91"29.91"29.91"29.94"29.94"29.94"29.94"29.91"29.91"29.94"29.91"29.88"29.88"29.88"29.88"29.88"29.88"29.91"29.94"29.94"29.97"29.97"29.97"29.97"30"30"30"30"30.03"30.03"30.03"30.03"
Wind Speed 5.8 mph5.1 mph5.1 mph5 mph5.1 mph6 mph6.5 mph4.8 mph4.1 mph3.8 mph3.5 mph3.6 mph4.1 mph3.7 mph3.8 mph4.6 mph4.9 mph4.8 mph4.9 mph3.6 mph6.1 mph9.4 mph10.1 mph10.4 mph11.4 mph9.7 mph8.8 mph9.3 mph10.1 mph10.6 mph9.5 mph8.4 mph5.8 mph3.2 mph2.7 mph1.4 mph2.5 mph3.4 mph3.4 mph2.5 mph2 mph3.1 mph2.4 mph2.4 mph4.5 mph4.6 mph5.4 mph6.4 mph
Wind
Direction
241°
WSW
229°
SW
228°
SW
229°
SW
234°
SW
237°
WSW
240°
WSW
239°
WSW
223°
SW
218°
SW
204°
SSW
191°
S
185°
S
202°
SSW
187°
S
221°
SW
214°
SW
224°
SW
229°
SW
226°
SW
226°
SW
223°
SW
243°
WSW
257°
WSW
270°
W
288°
WNW
292°
WNW
294°
WNW
303°
WNW
311°
NW
317°
NW
335°
NNW
347°
NNW

N

N
358°
N
350°
N
359°
N
357°
N

N
41°
NE
30°
NNE
45°
NE

N
10°
N
16°
NNE

N

N

Daily Forecast

Date High Low Precip. Humidity
Today
Jul 7

Clear
100 °F
74 °F
3%
51%
Friday
Jul 8

Clouds
102 °F
77 °F
11%
38%
Saturday
Jul 9

Rain
95 °F
74 °F
53%
48%
Sunday
Jul 10

Clear
95 °F
67 °F
0%
34%
Monday
Jul 11

Clear
100 °F
68 °F
0%
30%
Tuesday
Jul 12

Rain
87 °F
74 °F
59%
87%
Wednesday
Jul 13

Clouds
89 °F
68 °F
27%
39%
Thursday
Jul 14

Clear
94 °F
66 °F
0%
28%
Friday
Jul 15

Clear
96 °F
67 °F
0%
30%
Saturday
Jul 16

Rain
93 °F
69 °F
24%
35%
Sunday
Jul 17

Rain
83 °F
65 °F
40%
72%
Monday
Jul 18

Clouds
89 °F
69 °F
4%
45%
Tuesday
Jul 19

Clouds
93 °F
71 °F
16%
38%
Wednesday
Jul 20

Rain
95 °F
70 °F
86%
35%
Thursday
Jul 21

Rain
90 °F
68 °F
71%
45%
Friday
Jul 22

Rain
92 °F
70 °F
92%
49%

Temperature 8-14 Day Outlook



Precipitation 8-14 Day Outlook






About Us
Contact Us
Site Map
Search Site
Advertise With Us
   
TableRock.USLakes.info
THE TABLE ROCK LAKE WEBSITE

Copyright 2022, Lakes Online
Privacy    |    Legal